EW9698 Weather Reports


time (UTC)temp
C
wind
direction
speed
KPH
gust
KPH
rain 1hr
cm
rain 24hr
cm
rain mn
cm
humidity
%
barometer
mb
20260505153014 3 340 4.8 16.1 0.00 0.18 0.18 89 1013.3
20260505152513 3 333 6.4 20.9 0.00 0.18 0.18 88 1013.1
20260505152017 3 9 4.8 20.9 0.00 0.18 0.18 88 1013.2
20260505151518 3 298 4.8 20.9 0.00 0.18 0.18 89 1013.1
20260505151012 3 355 6.4 16.1 0.03 0.18 0.18 89 1013.2
20260505150512 3 327 9.7 20.9 0.03 0.18 0.18 90 1013.2
20260505140505 1 304 1.6 9.7 0.10 0.15 0.15 94 1013.1
20260505130106 0 259 1.6 4.8 0.00 0.05 0.05 94 1012.8
20260505124559 0 257 0.0 4.8 0.03 0.05 0.05 94 1012.7
20260505124057 0 257 1.6 4.8 0.03 0.05 0.05 94 1012.7
20260505123601 0 249 1.6 4.8 0.03 0.05 0.05 94 1012.6
20260505123059 0 249 3.2 4.8 0.03 0.05 0.05 93 1012.7
20260505122556 0 234 1.6 3.2 0.03 0.05 0.05 93 1012.6
20260505122055 0 229 1.6 4.8 0.03 0.05 0.05 93 1012.5
20260505121615 0 232 1.6 4.8 0.03 0.05 0.05 93 1012.5
20260505121053 0 173 1.6 3.2 0.03 0.05 0.05 93 1012.4
20260505120553 0 44 0.0 0.0 0.03 0.05 0.05 93 1012.3
20260505120055 0 44 0.0 0.0 0.03 0.05 0.05 93 1012.4
20260505115555 0 43 0.0 0.0 0.00 0.03 0.03 92 1012.4
20260505115055 0 43 0.0 0.0 0.00 0.03 0.03 92 1012.6
20260505114552 0 43 0.0 1.6 0.00 0.03 0.03 92 1012.6
20260505114051 0 43 0.0 3.2 0.00 0.03 0.03 92 1012.6
20260505113552 0 43 1.6 4.8 0.03 0.03 0.03 91 1012.8
20260505113051 0 43 3.2 11.3 0.03 0.03 0.03 91 1012.8
20260505112550 0 40 4.8 11.3 0.03 0.03 0.03 91 1012.8
20260505112049 0 47 4.8 14.5 0.03 0.03 0.03 90 1012.8
20260505111548 0 39 8.0 14.5 0.03 0.03 0.03 90 1012.8
20260505111048 0 34 8.0 14.5 0.03 0.03 0.03 89 1012.7
20260505110547 0 35 4.8 16.1 0.03 0.03 0.03 89 1012.7
20260505102036 3 332 14.5 30.6 0.00 0.00 0.00 80 1012.2
20260505101534 3 306 17.7 30.6 0.00 0.00 0.00 77 1012.2
20260505101032 3 319 14.5 27.4 0.00 0.00 0.00 73 1012.1
20260505100533 3 317 8.0 24.1 0.00 0.00 0.00 73 1012.2
20260505100035 3 329 6.4 17.7 0.00 0.00 0.00 73 1012.1
20260505095532 3 346 8.0 19.3 0.00 0.00 0.00 74 1012.1
20260505095030 3 326 8.0 19.3 0.00 0.00 0.00 74 1012.1
20260505094532 3 308 9.7 14.5 0.00 0.00 0.00 74 1012.0
20260505094030 3 290 8.0 14.5 0.00 0.00 0.00 74 1011.9
20260505093530 3 313 6.4 12.9 0.00 0.00 0.00 74 1011.9
20260505093039 3 296 8.0 16.1 0.00 0.00 0.00 74 1011.9
20260505092531 3 289 9.7 16.1 0.00 0.00 0.00 74 1011.9
20260505092030 3 280 6.4 14.5 0.00 0.00 0.00 74 1011.8
20260505091530 3 303 3.2 14.5 0.00 0.00 0.00 73 1011.8
20260505091030 3 283 8.0 16.1 0.00 0.00 0.00 73 1011.7
20260505090528 3 287 9.7 17.7 0.00 0.00 0.00 73 1011.7
20260505090027 3 283 11.3 17.7 0.00 0.00 0.00 73 1011.7
20260505085527 3 253 9.7 16.1 0.00 0.00 0.00 72 1011.5
20260505085028 3 273 8.0 12.9 0.00 0.00 0.00 72 1011.5
20260505084526 3 294 4.8 14.5 0.00 0.00 0.00 72 1011.7
20260505084024 3 286 6.4 14.5 0.00 0.00 0.00 72 1011.5
20260505083523 3 269 11.3 14.5 0.00 0.00 0.00 71 1011.5
20260505083027 3 274 8.0 14.5 0.00 0.00 0.00 71 1011.6
20260505082522 3 271 9.7 16.1 0.00 0.00 0.00 71 1011.7
20260505082021 3 261 8.0 14.5 0.00 0.00 0.00 70 1011.8
20260505081527 3 263 6.4 11.3 0.00 0.00 0.00 70 1011.8
20260505081019 3 288 4.8 11.3 0.00 0.00 0.00 70 1011.7
20260505080518 3 296 6.4 11.3 0.00 0.00 0.00 69 1011.8
20260505080018 3 304 4.8 9.7 0.00 0.00 0.00 69 1011.8
20260505075520 3 302 4.8 11.3 0.00 0.00 0.00 69 1011.7
20260505075016 4 286 4.8 11.3 0.00 0.00 0.00 68 1011.8
20260505074517 4 287 4.8 8.0 0.00 0.00 0.00 67 1011.8
20260505074014 4 300 4.8 6.4 0.00 0.00 0.00 67 1011.9
20260505073514 4 315 1.6 6.4 0.00 0.00 0.00 66 1011.8
20260505073013 4 292 3.2 6.4 0.00 0.00 0.00 66 1012.0
20260505072511 4 265 3.2 6.4 0.00 0.00 0.00 66 1012.0
20260505072012 5 277 0.0 0.0 0.00 0.00 0.00 66 1012.1
20260505071510 5 355 0.0 0.0 0.00 0.00 0.00 65 1012.0
20260505071010 5 355 0.0 0.0 0.00 0.00 0.00 66 1012.0
20260505070510 5 355 0.0 0.0 0.00 0.00 0.00 65 1012.1
20260505070009 5 355 0.0 0.0 0.00 0.00 0.00 65 1012.2
20260505065510 5 355 0.0 0.0 0.00 0.00 0.00 65 1012.1
20260505065007 5 355 0.0 1.6 0.00 0.00 0.00 65 1012.1
20260505064510 5 355 0.0 1.6 0.00 0.00 0.00 65 1012.2
20260505064007 5 355 0.0 0.0 0.00 0.00 0.00 64 1012.2
20260505063506 5 355 0.0 0.0 0.00 0.00 0.00 64 1012.2
20260505063006 5 355 0.0 0.0 0.00 0.00 0.00 64 1012.2
20260505062510 5 355 0.0 1.6 0.00 0.00 0.00 63 1012.1
20260505062005 5 355 0.0 1.6 0.00 0.00 0.00 64 1012.2
20260505061505 5 355 0.0 1.6 0.00 0.00 0.00 63 1012.2
20260505061005 5 355 0.0 3.2 0.00 0.00 0.00 64 1012.2
20260505060503 5 355 0.0 3.2 0.00 0.00 0.00 63 1012.3
20260505060103 5 355 0.0 3.2 0.00 0.00 0.00 63 1012.4
20260505055501 5 355 0.0 6.4 0.00 0.00 0.00 63 1012.3
20260505055002 5 355 1.6 6.4 0.00 0.00 0.00 63 1012.3
20260505054501 5 13 1.6 9.7 0.00 0.00 0.00 63 1012.4
20260505054000 5 15 3.2 9.7 0.00 0.00 0.00 62 1012.3
20260505053501 5 5 4.8 11.3 0.00 0.00 0.00 62 1012.4
20260505053108 5 11 3.2 9.7 0.00 0.00 0.00 62 1012.3
20260505053000 5 13 4.8 9.7 0.00 0.00 0.00 62 1012.3
20260505052604 5 34 3.2 12.9 0.00 0.00 0.00 62 1012.4
20260505052101 5 14 6.4 14.5 0.00 0.00 0.00 62 1012.3
20260505051559 5 15 6.4 14.5 0.00 0.00 0.00 62 1012.1
20260505051102 5 24 9.7 14.5 0.00 0.00 0.00 62 1012.1
20260505050600 5 42 4.8 12.9 0.00 0.00 0.00 62 1012.1
20260505041557 6 5 9.7 17.7 0.00 0.00 0.00 63 1012.3
20260505041057 6 360 8.0 19.3 0.00 0.00 0.00 62 1012.3
20260505040559 6 329 9.7 19.3 0.00 0.00 0.00 62 1012.3
20260505040057 6 341 8.0 17.7 0.00 0.00 0.00 61 1012.4
20260505035556 6 336 9.7 20.9 0.00 0.00 0.00 62 1012.4
20260505035056 6 32 11.3 24.1 0.00 0.00 0.00 60 1012.4
20260505034556 6 24 14.5 24.1 0.00 0.00 0.00 59 1012.5
20260505034056 6 13 9.7 25.7 0.00 0.00 0.00 59 1012.4
20260505033555 6 40 14.5 25.7 0.00 0.00 0.00 59 1012.4
20260505033112 6 32 9.7 17.7 0.00 0.00 0.00 59 1012.3
20260505032554 6 28 9.7 17.7 0.00 0.00 0.00 59 1012.2
20260505032053 6 52 9.7 17.7 0.00 0.00 0.00 60 1012.0
20260505031550 6 19 11.3 22.5 0.00 0.00 0.00 59 1011.8
20260505031053 6 360 12.9 22.5 0.00 0.00 0.00 59 1011.8
20260505030551 6 26 14.5 27.4 0.00 0.00 0.00 59 1011.7
20260505030052 6 18 14.5 29.0 0.00 0.00 0.00 58 1011.7
20260505025549 7 25 17.7 29.0 0.00 0.00 0.00 57 1011.6
20260505025048 7 28 14.5 29.0 0.00 0.00 0.00 55 1011.5
20260505024547 7 18 19.3 29.0 0.00 0.00 0.00 55 1011.5
20260505024047 7 5 19.3 30.6 0.00 0.00 0.00 54 1011.4
20260505023546 7 11 20.9 30.6 0.00 0.00 0.00 54 1011.3
20260505023058 7 360 17.7 32.2 0.00 0.00 0.00 54 1011.3
20260505022549 7 28 17.7 32.2 0.00 0.00 0.00 54 1011.1
20260505022050 7 355 20.9 33.8 0.00 0.00 0.00 54 1011.1
20260505021545 7 340 24.1 33.8 0.00 0.00 0.00 54 1011.1
20260505021044 7 5 14.5 32.2 0.00 0.00 0.00 54 1011.1
20260505020545 7 355 19.3 33.8 0.00 0.00 0.00 54 1011.1
20260505020050 7 355 17.7 33.8 0.00 0.00 0.00 53 1011.2
20260505015544 7 50 22.5 32.2 0.00 0.00 0.00 54 1011.1
20260505015045 7 28 16.1 32.2 0.00 0.00 0.00 53 1010.9
20260505014542 7 347 20.9 32.2 0.00 0.00 0.00 53 1010.8
20260505014044 7 332 20.9 35.4 0.00 0.00 0.00 53 1010.7
20260505013544 7 347 24.1 35.4 0.00 0.00 0.00 52 1010.6
20260505013042 7 360 20.9 38.6 0.00 0.00 0.00 52 1010.6
20260505012542 8 330 22.5 38.6 0.00 0.00 0.00 51 1010.6
20260505012043 8 316 20.9 38.6 0.00 0.00 0.00 50 1010.6
20260505011541 8 340 16.1 35.4 0.00 0.00 0.00 50 1010.6
20260505011039 8 360 22.5 35.4 0.00 0.00 0.00 49 1010.7
20260505010539 8 350 17.7 33.8 0.00 0.00 0.00 48 1010.7
20260505010042 9 344 19.3 33.8 0.00 0.00 0.00 48 1010.8
20260505005538 9 360 16.1 32.2 0.00 0.00 0.00 48 1010.7
20260505005039 10 348 17.7 32.2 0.00 0.00 0.00 48 1010.6
20260505004546 10 360 19.3 32.2 0.00 0.00 0.00 50 1010.7
20260505004037 10 360 19.3 30.6 0.00 0.00 0.00 50 1010.7
20260505003537 10 11 16.1 29.0 0.00 0.00 0.00 50 1010.6
20260505003038 10 30 17.7 29.0 0.00 0.00 0.00 49 1010.6
20260505002537 11 45 17.7 30.6 0.00 0.00 0.00 49 1010.7
20260505002036 11 15 17.7 30.6 0.00 0.00 0.00 49 1010.7
20260505001535 11 49 16.1 29.0 0.00 0.00 0.00 49 1010.5
20260505001034 11 38 16.1 29.0 0.00 0.00 0.00 49 1010.5
20260505000534 11 360 16.1 30.6 0.00 0.00 0.00 49 1010.5
20260505000034 11 10 22.5 29.0 0.00 0.00 0.00 49 1010.5
20260504235530 11 34 11.3 25.7 0.00 0.00 0.00 49 1010.6
20260504235029 11 5 11.3 25.7 0.00 0.00 0.00 51 1010.4
20260504234536 11 355 12.9 24.1 0.00 0.00 0.00 51 1010.4
20260504234032 11 5 14.5 25.7 0.00 0.00 0.00 51 1010.5
20260504233529 11 15 12.9 27.4 0.00 0.00 0.00 50 1010.4
20260504233030 11 9 14.5 27.4 0.00 0.00 0.00 49 1010.4
20260504232529 12 355 11.3 29.0 0.00 0.00 0.00 48 1010.4
20260504232028 12 341 16.1 29.0 0.00 0.00 0.00 49 1010.5
20260504231538 11 304 16.1 29.0 0.00 0.00 0.00 50 1010.4
20260504231027 11 355 14.5 29.0 0.00 0.00 0.00 50 1010.3
20260504230527 11 304 12.9 27.4 0.00 0.00 0.00 50 1010.4
20260504230027 11 12 11.3 24.1 0.00 0.00 0.00 50 1010.3
20260504225528 11 5 16.1 25.7 0.00 0.00 0.00 49 1010.3
20260504225029 11 350 16.1 27.4 0.00 0.00 0.00 49 1010.3
20260504224528 11 339 16.1 27.4 0.00 0.00 0.00 49 1010.3
20260504224026 11 29 12.9 33.8 0.00 0.00 0.00 49 1010.2
20260504223526 11 5 22.5 33.8 0.00 0.00 0.00 49 1010.0
20260504223026 11 13 17.7 30.6 0.00 0.00 0.00 48 1010.1
20260504222528 11 5 16.1 27.4 0.00 0.00 0.00 49 1010.0
20260504222026 11 31 16.1 27.4 0.00 0.00 0.00 49 1010.0
20260504221526 11 32 17.7 38.6 0.00 0.00 0.00 48 1009.8
20260504221027 11 5 20.9 38.6 0.00 0.00 0.00 47 1009.9
20260504220524 12 9 20.9 40.2 0.00 0.00 0.00 47 1010.2
20260504220024 12 33 22.5 40.2 0.00 0.00 0.00 47 1009.9
20260504215524 12 342 19.3 38.6 0.00 0.00 0.00 47 1009.9
20260504215024 12 30 20.9 38.6 0.00 0.00 0.00 46 1010.0
20260504214532 12 11 20.9 33.8 0.00 0.00 0.00 47 1010.1
20260504214024 12 345 17.7 33.8 0.00 0.00 0.00 47 1010.2
20260504213526 12 360 17.7 33.8 0.00 0.00 0.00 47 1010.2
20260504213028 12 5 19.3 45.1 0.00 0.00 0.00 46 1009.9
20260504212523 12 21 24.1 45.1 0.00 0.00 0.00 46 1010.1
20260504212022 12 5 24.1 41.8 0.00 0.00 0.00 45 1010.1
20260504211522 13 337 19.3 38.6 0.00 0.00 0.00 44 1010.0
20260504211022 14 327 20.9 43.5 0.00 0.00 0.00 42 1010.2
20260504210525 15 11 22.5 33.8 0.00 0.00 0.00 42 1010.0
20260504210022 14 344 11.3 30.6 0.00 0.00 0.00 43 1010.0
20260504205524 14 331 19.3 38.6 0.00 0.00 0.00 44 1010.1
20260504205021 14 321 16.1 37.0 0.00 0.00 0.00 44 1010.0
20260504204550 15 5 17.7 37.0 0.00 0.00 0.00 42 1010.0
20260504204021 15 360 12.9 38.6 0.00 0.00 0.00 42 1009.9
20260504203522 14 348 19.3 38.6 0.00 0.00 0.00 45 1009.9
20260504203027 15 355 22.5 37.0 0.00 0.00 0.00 43 1010.0
20260504202522 14 325 16.1 35.4 0.00 0.00 0.00 44 1010.1
20260504202021 15 304 17.7 30.6 0.00 0.00 0.00 42 1010.0
20260504201520 15 319 17.7 38.6 0.00 0.00 0.00 43 1010.0
20260504201020 14 342 19.3 38.6 0.00 0.00 0.00 44 1010.1
20260504200520 14 319 22.5 41.8 0.00 0.00 0.00 44 1010.1
20260504200028 15 348 16.1 41.8 0.00 0.00 0.00 42 1010.0
20260504195519 15 17 12.9 27.4 0.00 0.00 0.00 43 1010.1
20260504195018 15 5 11.3 22.5 0.00 0.00 0.00 45 1010.2
20260504194520 13 22 9.7 20.9 0.00 0.00 0.00 48 1010.3
20260504194020 13 317 12.9 19.3 0.00 0.00 0.00 49 1010.3
20260504193517 13 337 8.0 19.3 0.00 0.00 0.00 50 1010.4
20260504193022 13 320 8.0 20.9 0.00 0.00 0.00 49 1010.5
20260504192515 13 321 12.9 20.9 0.00 0.00 0.00 47 1010.3
20260504192016 13 286 3.2 14.5 0.00 0.00 0.00 48 1010.4
20260504191515 12 18 4.8 22.5 0.00 0.00 0.00 49 1010.3
20260504191015 13 355 11.3 22.5 0.00 0.00 0.00 48 1010.5
20260504190515 13 336 4.8 17.7 0.00 0.00 0.00 48 1010.5
20260504190014 13 14 8.0 17.7 0.00 0.00 0.00 47 1010.5
20260504185516 13 53 3.2 19.3 0.00 0.00 0.00 50 1010.5
20260504185012 12 14 8.0 24.1 0.00 0.00 0.00 49 1010.6
20260504184511 12 341 12.9 24.1 0.00 0.00 0.00 50 1010.6
20260504184017 12 5 9.7 27.4 0.00 0.00 0.00 50 1010.5
20260504183511 12 34 12.9 30.6 0.00 0.00 0.00 51 1010.6
20260504183011 12 62 17.7 30.6 0.00 0.00 0.00 50 1010.5
20260504182509 12 58 9.7 32.2 0.00 0.00 0.00 51 1010.5
20260504182010 11 26 22.5 32.2 0.00 0.00 0.00 54 1010.7
20260504181511 11 40 19.3 33.8 0.00 0.00 0.00 55 1010.8
20260504181008 11 57 19.3 33.8 0.00 0.00 0.00 54 1010.8
20260504180512 10 42 22.5 32.2 0.00 0.00 0.00 56 1010.8
20260504180008 10 34 17.7 27.4 0.00 0.00 0.00 56 1010.8
20260504175507 10 22 16.1 25.7 0.00 0.00 0.00 56 1010.7
20260504175007 10 11 14.5 35.4 0.00 0.00 0.00 54 1010.7
20260504174507 10 59 14.5 35.4 0.00 0.00 0.00 54 1009.9
20260504174008 10 65 24.1 33.8 0.00 0.00 0.00 53 1010.2
20260504173508 10 43 22.5 33.8 0.00 0.00 0.00 52 1010.6
20260504173008 11 43 20.9 35.4 0.00 0.00 0.00 51 1011.0
20260504172505 12 34 22.5 35.4 0.00 0.00 0.00 51 1010.9
20260504172006 11 34 17.7 33.8 0.00 0.00 0.00 50 1010.8
20260504171516 12 40 20.9 38.6 0.00 0.00 0.00 49 1010.7
20260504171007 12 49 19.3 33.8 0.00 0.00 0.00 51 1010.4
20260504170502 11 32 19.3 33.8 0.00 0.00 0.00 52 1010.5